Cleveland, OH

3:55 AM EDT on August 24, 2016 (GMT -0400)
Burke Lakefront

Weather History for KBKL - January, 2007

Change the Weather History Date:

Friday, January 19, 2007

  Actual Average Record
Temperature  
Mean Temperature 28 °F -  
Max Temperature 33 °F 30 °F 53 °F (2006)
Min Temperature 24 °F 20 °F 1 °F (1997)
Degree Days  
Heating Degree Days 36    
Moisture  
Dew Point 23 °F    
Average Humidity 78    
Maximum Humidity 93    
Minimum Humidity 61    
Precipitation  
Precipitation 0.02 in - - ()
Sea Level Pressure  
Sea Level Pressure 30.05 in    
Wind  
Wind Speed 26 mph (West)    
Max Wind Speed 32 mph    
Max Gust Speed 40 mph    
Visibility 3 miles    
Events Fog , Snow    
Averages and records for this station are not official NWS values.
T = Trace of Precipitation, MM = Missing Value Source: NWS Daily Summary

Daily Weather History Graph

Daily Weather History Graph

Search for Another Location

Airport or City:

Trip Planner

Search our weather history database for the weather conditions in past years. The results will help you decide how hot, cold, wet, or windy it might be!

Date:

Astronomy

Jan. 19, 2007 Rise Set
Actual Time 7:49 AM EST 5:26 PM EST
Civil Twilight 7:18 AM EST 5:56 PM EST
Nautical Twilight 6:44 AM EST 6:30 PM EST
Astronomical Twilight 6:11 AM EST 7:03 PM EST
Moon 8:30 AM EST (1/19) 6:04 PM EST (1/19)
Length of Visible Light 10h 37m
Length of Day
9h 37m
New Moon, 0% of the Moon is Illuminated
Jan 19
New Moon
Jan 25
First Quarter
Feb 2
Full
Feb 10
Last Quarter
Feb 17
New

Hourly Weather History & Observations

Time (EST) Temp. Windchill Dew Point Humidity Pressure Visibility Wind Dir Wind Speed Gust Speed Precip Events Conditions
12:53 AM 33.1 °F 19.6 °F 28.0 °F 82% 29.96 in 9.0 mi West 27.6 mph 33.4 mph 0.00 in Snow Light Snow
1:53 AM 32.0 °F 18.9 °F 26.1 °F 79% 29.96 in 3.0 mi WSW 24.2 mph - 0.00 in Snow Light Snow
2:53 AM 32.0 °F 19.5 °F 26.1 °F 79% 29.97 in 4.0 mi WSW 21.9 mph 26.5 mph 0.00 in Snow Light Snow
3:53 AM 32.0 °F 19.5 °F 27.0 °F 82% 29.97 in 5.0 mi WSW 21.9 mph - 0.00 in Snow Light Snow
4:53 AM 33.1 °F 20.6 °F 27.0 °F 78% 29.97 in 7.0 mi West 23.0 mph 31.1 mph 0.00 in Snow Light Snow
5:53 AM 33.1 °F 19.6 °F 26.1 °F 75% 29.98 in 9.0 mi West 27.6 mph 34.5 mph 0.00 in Snow Light Snow
6:53 AM 32.0 °F 19.2 °F 26.1 °F 79% 30.00 in 4.0 mi West 23.0 mph 33.4 mph 0.00 in Snow Light Snow
7:53 AM 30.9 °F 17.2 °F 26.1 °F 82% 30.02 in 4.0 mi WSW 25.3 mph 28.8 mph 0.00 in Snow Light Snow
8:17 AM 30.2 °F 16.5 °F 26.6 °F 86% 30.01 in 2.5 mi WSW 24.2 mph - 0.00 in Snow Light Snow
8:39 AM 30.2 °F 17.4 °F 24.8 °F 80% 30.02 in 1.5 mi WSW 20.7 mph 29.9 mph 0.00 in Snow Light Snow
8:53 AM 30.0 °F 16.0 °F 25.0 °F 82% 30.04 in 0.5 mi WSW 25.3 mph 29.9 mph 0.00 in Snow Snow
9:20 AM 30.2 °F 16.8 °F 26.6 °F 86% 30.03 in 0.5 mi WSW 23.0 mph - 0.00 in Fog , Snow Snow
9:38 AM 30.2 °F 16.5 °F 26.6 °F 86% 30.04 in 0.5 mi WSW 24.2 mph - 0.00 in Fog , Snow Snow
9:41 AM 30.2 °F 16.2 °F 26.6 °F 86% 30.04 in 0.5 mi WSW 25.3 mph - 0.00 in Fog , Snow Snow
9:53 AM 30.0 °F 15.7 °F 25.0 °F 82% 30.06 in 0.8 mi WSW 26.5 mph 34.5 mph 0.00 in Snow Light Snow
10:12 AM 28.4 °F 13.5 °F 24.8 °F 86% 30.05 in 0.5 mi WSW 26.5 mph - 0.00 in Fog , Snow Snow
10:24 AM 28.4 °F 12.7 °F 26.6 °F 93% 30.05 in 0.2 mi West 29.9 mph 38.0 mph 0.01 in Fog , Snow Heavy Snow
10:39 AM 30.2 °F 15.9 °F 26.6 °F 86% 30.06 in 0.2 mi West 26.5 mph 32.2 mph 0.02 in Fog , Snow Light Snow
10:46 AM 30.2 °F 16.2 °F 26.6 °F 86% 30.06 in 0.2 mi WSW 25.3 mph 33.4 mph 0.02 in Fog , Snow Snow
10:53 AM 30.0 °F 15.4 °F 26.1 °F 85% 30.08 in 6.0 mi WNW 27.6 mph 33.4 mph 0.02 in Snow Light Snow
11:06 AM 30.2 °F 15.9 °F 21.2 °F 69% 30.06 in 9.0 mi WNW 26.5 mph 35.7 mph 0.00 in Snow Light Snow
11:53 AM 30.0 °F 15.4 °F 21.0 °F 69% 30.09 in 0.8 mi West 27.6 mph 39.1 mph 0.00 in Snow Light Snow
12:02 PM 28.4 °F 14.4 °F 23.0 °F 80% 30.06 in 0.5 mi WNW 23.0 mph 32.2 mph 0.00 in Snow Snow
12:11 PM 30.2 °F 14.7 °F 24.8 °F 80% 30.06 in 2.5 mi West 32.2 mph 38.0 mph 0.00 in Snow Light Snow
12:15 PM 30.2 °F 15.2 °F 23.0 °F 75% 30.06 in 0.5 mi West 29.9 mph 38.0 mph 0.00 in Snow Snow
12:25 PM 28.4 °F 14.7 °F 24.8 °F 86% 30.05 in 0.5 mi West 21.9 mph - 0.00 in Snow Snow
12:53 PM 28.9 °F 15.1 °F 24.1 °F 82% 30.07 in 0.5 mi WNW 23.0 mph 32.2 mph 0.00 in Snow Snow
1:00 PM 30.2 °F 15.7 °F 24.8 °F 80% 30.05 in 2.5 mi West 27.6 mph 33.4 mph 0.00 in Snow Light Snow
1:23 PM 30.2 °F 15.9 °F 24.8 °F 80% 30.05 in 0.2 mi West 26.5 mph 35.7 mph 0.00 in Snow Heavy Snow
1:30 PM 28.4 °F 14.1 °F 24.8 °F 86% 30.05 in 1.0 mi West 24.2 mph 34.5 mph 0.00 in Snow Light Snow
1:35 PM 30.2 °F 16.5 °F 26.6 °F 86% 30.04 in 3.0 mi WNW 24.2 mph 34.5 mph 0.00 in Snow Light Snow
1:38 PM 30.2 °F 17.1 °F 26.6 °F 86% 30.04 in 3.0 mi West 21.9 mph 34.5 mph 0.00 in Snow Light Snow
1:46 PM 30.2 °F 15.9 °F 24.8 °F 80% 30.04 in 3.0 mi West 26.5 mph 35.7 mph 0.00 in Snow Light Snow
1:53 PM 30.9 °F 15.7 °F 23.0 °F 72% 30.06 in 0.8 mi West 32.2 mph 39.1 mph 0.00 in   Haze
2:14 PM 28.4 °F 14.4 °F 24.8 °F 86% 30.05 in 1.0 mi WSW 23.0 mph 32.2 mph 0.00 in Snow Light Snow
2:27 PM 28.4 °F 13.0 °F 24.8 °F 86% 30.05 in 2.0 mi WSW 28.8 mph 36.8 mph 0.00 in Snow Light Snow
2:53 PM 30.0 °F 15.7 °F 24.1 °F 79% 30.07 in 2.0 mi West 26.5 mph - 0.00 in Snow Light Snow
2:59 PM 30.2 °F 15.2 °F 23.0 °F 75% 30.05 in 8.0 mi West 29.9 mph 36.8 mph 0.00 in   Mostly Cloudy
3:06 PM 30.2 °F 16.5 °F 21.2 °F 69% 30.05 in 4.0 mi West 24.2 mph - 0.00 in Snow Light Snow
3:17 PM 30.2 °F 15.7 °F 21.2 °F 69% 30.04 in 5.0 mi WSW 27.6 mph - 0.00 in Snow Light Snow
3:53 PM 30.0 °F 14.9 °F 19.0 °F 64% 30.06 in 4.0 mi WSW 29.9 mph 34.5 mph 0.00 in   Haze
4:53 PM 30.0 °F 16.3 °F 19.0 °F 64% 30.07 in 10.0 mi WSW 24.2 mph - N/A   Overcast
5:53 PM 28.9 °F 14.0 °F 17.1 °F 61% 30.09 in 10.0 mi WSW 27.6 mph 32.2 mph N/A   Overcast
6:53 PM 28.9 °F 14.5 °F 19.0 °F 67% 30.11 in 10.0 mi WSW 25.3 mph 32.2 mph N/A   Overcast
7:53 PM 30.0 °F 14.9 °F 19.0 °F 64% 30.11 in 9.0 mi West 29.9 mph 35.7 mph 0.00 in   Overcast
8:53 PM 28.9 °F 14.0 °F 19.0 °F 67% 30.10 in 10.0 mi West 27.6 mph 35.7 mph N/A   Overcast
9:41 PM 28.4 °F 13.5 °F 19.4 °F 69% 30.08 in 3.0 mi WNW 26.5 mph 39.1 mph 0.00 in Snow Light Snow
9:45 PM 28.4 °F 13.8 °F 19.4 °F 69% 30.07 in 1.8 mi West 25.3 mph 39.1 mph 0.00 in Snow Light Snow
9:53 PM 28.0 °F 13.0 °F 21.0 °F 75% 30.10 in 1.5 mi West 26.5 mph 34.5 mph 0.00 in Snow Light Snow
10:23 PM 28.4 °F 13.0 °F 19.4 °F 69% 30.06 in 3.0 mi West 28.8 mph 35.7 mph 0.00 in Snow Light Snow
10:53 PM 28.0 °F 12.3 °F 19.9 °F 72% 30.09 in 6.0 mi WNW 29.9 mph 40.3 mph 0.00 in Snow Light Snow
10:56 PM 28.4 °F 13.5 °F 21.2 °F 74% 30.08 in 1.8 mi NW 26.5 mph 40.3 mph 0.00 in Snow Light Snow
11:11 PM 26.6 °F 11.4 °F 21.2 °F 80% 30.08 in 1.5 mi NW 25.3 mph 32.2 mph 0.00 in Snow Light Snow
11:18 PM 26.6 °F 10.8 °F 21.2 °F 80% 30.09 in 0.5 mi NW 27.6 mph 32.2 mph 0.00 in Snow Snow
11:46 PM 24.8 °F 8.7 °F 21.2 °F 86% 30.10 in 0.5 mi NW 26.5 mph 33.4 mph 0.00 in Fog , Snow Snow
11:53 PM 26.1 °F 10.1 °F 19.9 °F 78% 30.12 in 1.8 mi NW 27.6 mph 33.4 mph 0.00 in Snow Light Snow
11:55 PM 26.6 °F 11.7 °F 19.4 °F 74% 30.10 in 3.0 mi NW 24.2 mph - 0.00 in Snow Light Snow